Location: Kawakawa
(35.3830°S, 174.0670°E)
Time: 03:05:45
(UTC+12:00)

Cosmos 1842 Rocket - Pass Details

Date: 15 August 2020
Orbit: 606 x 633 km, 82.5° (Epoch: 19 September)

Event Time Altitude Azimuth Distance (km) Brightness Sun altitude
Rises 18:22:42 0° 346° (NNW) 2,916 7.4 -6.9°
Reaches altitude 10° 18:24:57 10° 342° (NNW) 2,018 6.6 -7.3°
Maximum altitude 18:29:22 60° 262° (W) 735 4.3 -8.2°
Drops below altitude 10° 18:33:52 10° 181° (S) 2,044 6.1 -9.1°
Sets 18:36:10 0° 177° (S) 2,958 6.9 -9.6°
